Probability
0 3 7 10 9 7 6 6 6 6 6 6 5 4 3 3 2 1 0 0 0 0 0 0 0 0 0 0 0 0 0 0 0 0 0 0 0 0 0 0 0 0 0
1 4 9 11 10 8 7 6 6 6 6 6 5 4 3 3 3 1 0 0 0 0 0 0 0 0 0 0 0 0 0 0 0 0 0 0 0 0 0 0 0 0 0
2 6 11 12 10 8 7 6 6 7 7 7 7 6 5 4 3 2 1 0 0 0 0 0 0 0 0 0 0 0 0 0 0 0 0 0 0 0 0 0 0 0 0
2 5 9 11 11 9 8 7 7 8 8 8 8 9 8 6 4 3 2 1 1 1 1 1 1 0 0 0 0 0 0 0 0 0 0 0 0 0 0 0 0 0 0
3 4 8 11 12 10 9 9 9 9 9 9 9 10 10 8 5 4 3 3 2 2 2 2 2 1 0 0 0 0 0 0 0 0 0 0 0 0 0 0 0 0 0
4 5 8 11 12 12 10 10 10 10 9 9 9 10 10 8 6 5 5 4 3 3 3 3 3 2 1 0 0 0 0 0 0 0 0 0 0 0 0 0 0 0 0
4 5 7 10 12 12 11 10 10 10 10 10 10 11 10 8 6 5 6 5 4 4 3 3 3 3 1 0 0 0 0 0 0 0 0 0 0 0 0 0 0 0 0
4 6 7 8 9 10 10 10 10 10 10 10 10 11 11 9 6 6 6 7 6 5 4 3 3 3 2 1 0 0 0 0 0 0 0 0 0 0 0 0 0 0 0
5 7 8 8 7 7 9 9 10 10 10 10 10 10 10 8 7 6 7 8 8 7 5 4 3 3 2 1 0 0 0 0 0 0 0 0 0 0 0 0 0 0 0
6 8 9 9 7 6 7 9 10 10 10 9 9 8 8 7 7 6 7 8 8 7 5 3 2 2 1 0 0 0 0 0 0 0 0 0 0 0 0 0 0 0 0
5 7 9 10 9 8 8 9 10 9 9 9 8 7 6 6 6 6 6 6 6 6 5 2 1 1 0 0 0 0 0 0 0 0 0 0 0 0 0 0 0 0 0
4 6 9 11 12 12 11 11 11 10 9 8 8 7 7 7 7 7 6 5 5 4 4 2 1 0 0 0 0 0 0 0 0 0 0 0 0 0 0 0 0 0 0
3 4 7 11 13 14 15 15 14 12 11 9 8 8 9 8 9 9 7 6 5 4 3 3 1 0 0 0 0 0 0 0 0 0 0 0 0 0 0 0 0 0 0
2 2 5 8 10 12 15 17 16 14 12 10 9 9 10 10 10 9 8 6 5 4 3 3 2 1 0 0 0 0 0 0 0 0 0 0 0 0 0 1 0 0 0
1 1 3 5 6 8 12 15 15 14 13 12 11 10 10 10 9 8 7 6 4 3 3 3 3 2 1 1 0 0 0 0 0 0 0 0 0 0 0 0 0 1 1
0 1 2 2 3 5 8 12 14 15 14 14 13 10 8 7 7 6 6 5 4 3 3 3 2 3 3 2 1 0 0 0 0 0 0 0 0 0 0 0 0 1 2
0 0 1 1 1 3 5 8 13 15 16 15 13 10 6 5 5 5 6 4 3 3 3 3 3 3 3 3 1 0 0 0 0 0 0 0 0 0 0 0 0 1 1
0 0 0 0 0 1 2 6 11 15 16 15 13 9 7 5 4 4 4 3 3 3 3 3 3 3 3 3 2 1 0 0 0 0 0 0 0 0 0 0 0 0 0
0 0 0 0 0 1 1 4 8 12 14 14 13 10 8 6 5 4 3 3 3 3 3 3 3 3 3 3 2 1 0 0 0 0 0 0 0 0 0 0 0 0 0
0 0 0 0 1 2 2 4 6 8 9 10 11 9 8 6 5 4 4 3 3 3 3 4 4 3 3 3 3 1 0 0 0 0 0 0 0 0 0 0 0 0 0
0 0 0 0 1 2 2 3 4 4 4 5 6 6 6 5 4 4 4 4 2 2 3 3 4 3 3 3 3 2 1 0 0 0 0 0 0 0 0 0 0 0 0
0 0 0 0 0 1 1 1 2 2 1 1 2 3 4 4 4 4 4 3 1 1 1 2 3 3 3 2 2 2 1 0 0 0 0 0 0 0 0 0 0 0 0
0 0 0 0 0 0 0 0 1 2 1 0 0 1 2 2 3 2 2 2 1 0 0 1 2 3 2 1 1 1 0 0 0 0 0 0 0 0 0 0 0 0 0
0 0 0 0 0 0 0 0 1 2 2 1 1 2 1 1 1 1 0 1 1 1 0 0 1 2 2 1 1 0 0 0 0 0 0 0 0 0 0 0 0 0 0
0 0 0 0 0 0 0 0 0 1 1 1 2 2 1 0 0 0 0 1 1 1 0 0 0 1 2 2 2 1 0 0 0 0 0 0 0 0 0 0 0 0 0
0 0 0 0 0 0 0 0 0 0 0 1 1 1 1 0 0 0 0 0 1 1 1 0 0 0 1 3 2 1 0 0 0 0 0 0 0 0 0 0 0 0 0
Wind_Speed
2 2 3 2 3 4 4 5 6 6 7 7 8 8 9 10 10 10 10 10 10 10 11 11 11 12 12 12 12 13 13 13 13 13 12 13 13 13 12 10 9 10 13
2 3 3 2 3 4 4 5 6 6 6 7 8 8 9 9 10 10 10 10 10 10 11 11 11 12 12 12 12 12 12 12 12 11 9 10 12 12 11 11 10 9 12
3 3 4 2 3 3 4 5 6 6 6 7 7 7 8 9 9 9 9 9 10 10 10 11 11 11 11 11 12 12 12 11 10 8 5 7 10 11 11 11 11 11 11
3 3 4 3 3 4 4 5 5 6 5 6 7 7 8 8 9 9 9 9 9 9 10 10 10 11 11 10 11 11 11 10 8 3 5 7 7 10 10 10 11 11 11
3 3 4 3 3 3 4 5 5 5 6 6 6 6 7 8 8 8 8 9 9 9 10 10 10 10 10 10 10 10 10 8 5 4 7 7 7 9 9 9 10 9 9
3 3 4 3 3 4 4 4 4 5 5 6 6 7 7 7 7 8 8 8 8 9 9 9 9 10 9 9 9 9 8 6 3 6 6 6 6 9 8 8 8 8 8
3 3 4 3 3 4 4 4 4 4 4 5 6 6 7 7 7 7 7 8 8 8 8 9 9 9 9 9 9 8 7 3 4 5 5 6 7 7 8 8 8 7 7
2 2 4 3 3 3 3 3 3 3 4 5 6 6 6 7 6 7 7 7 7 7 8 8 9 8 8 8 8 7 6 2 3 5 5 5 7 7 7 7 7 7 6
2 2 2 3 3 3 3 3 3 3 3 4 5 6 6 6 6 6 6 6 7 7 7 7 8 8 8 7 7 6 5 2 2 3 4 4 6 6 5 6 6 6 6
2 2 2 2 3 3 3 3 2 3 2 4 5 5 6 6 6 5 6 6 7 6 7 7 7 7 7 7 7 6 3 1 3 3 3 4 5 4 4 5 5 5 5
1 1 1 1 1 2 2 3 3 2 2 4 5 5 5 4 5 4 5 6 7 6 6 7 7 7 6 6 6 4 2 1 2 2 3 4 3 3 3 3 3 3 3
1 0 0 1 1 1 1 2 2 2 3 3 3 4 4 3 3 3 6 6 6 6 6 6 7 6 4 4 4 3 2 2 2 2 3 4 2 2 2 2 2 2 2
1 1 1 1 1 1 1 1 1 1 2 2 3 4 3 3 3 3 3 4 5 5 4 5 5 3 2 2 2 2 2 1 1 1 3 3 2 2 2 2 1 1 1
1 2 2 1 1 1 1 1 2 2 2 2 2 3 3 2 2 3 2 3 3 2 3 3 2 2 2 3 3 2 2 1 1 1 3 4 3 2 2 1 1 1 1
1 2 2 2 1 1 1 1 1 2 2 2 2 2 3 2 3 3 2 2 3 2 2 2 2 3 3 2 2 2 2 2 2 1 2 4 3 3 2 2 1 1 2
1 2 2 1 1 1 1 1 1 2 2 2 2 2 3 2 3 3 3 2 2 2 2 2 3 3 2 2 2 2 2 2 1 1 1 2 3 3 2 2 2 2 2
1 2 2 1 1 1 1 1 1 1 2 2 2 3 3 2 3 3 3 3 2 2 3 2 3 2 2 2 3 2 2 1 1 1 1 0 1 1 2 3 3 3 3
1 1 1 1 1 0 0 1 1 1 1 1 2 2 3 3 3 3 3 2 2 2 2 2 2 2 2 2 2 2 2 1 1 1 1 1 0 1 1 3 4 4 4
1 0 1 1 1 0 0 1 1 1 1 1 2 2 2 3 3 3 2 2 3 2 2 2 2 2 2 2 2 2 1 1 2 2 1 1 1 1 1 1 2 4 4
0 0 0 1 1 1 1 1 1 1 1 1 1 2 2 2 3 3 2 3 3 2 2 2 3 2 2 2 2 2 2 1 2 2 2 2 1 2 2 2 2 2 3
0 0 1 1 1 1 1 1 1 1 1 1 1 1 2 1 2 3 2 3 3 2 2 2 2 3 2 1 2 2 2 2 2 2 2 2 2 2 2 3 2 3 2
1 0 1 1 1 1 0 0 0 0 0 1 1 1 1 1 2 1 2 2 2 2 2 2 2 2 1 1 2 2 2 3 3 3 2 2 3 2 3 3 3 3 3
1 1 1 1 1 1 1 1 1 1 1 1 1 1 1 1 2 2 1 2 2 2 2 3 3 3 2 2 1 1 2 3 2 3 4 3 3 3 3 3 3 3 3
1 1 1 1 1 1 1 1 2 1 1 0 0 0 1 1 1 1 1 2 2 2 2 2 3 3 3 2 2 1 2 2 2 2 3 3 3 4 4 3 4 4 4
1 1 1 1 1 1 1 2 2 1 1 0 0 1 0 1 1 0 1 1 2 2 2 3 2 3 3 3 2 2 2 2 3 3 3 3 4 4 4 4 3 3 3
0 0 1 1 1 1 2 2 2 2 2 1 1 0 0 0 1 0 0 0 1 1 2 2 2 3 3 3 3 2 2 2 3 3 4 4 4 4 4 4 4 3 3
Wind_Direction
150 152 136 130 113 104 96 100 103 102 108 106 103 109 112 115 115 113 110 109 107 103 101 98 94 92 91 89 87 83 81 80 79 78 79 79 81 84 85 82 85 86 84
143 148 132 125 116 113 105 105 103 102 107 109 105 105 110 112 113 112 111 111 109 105 101 99 95 93 93 91 88 84 83 81 78 75 78 86 82 80 81 74 69 81 85
132 142 145 116 115 113 110 109 112 109 109 114 108 104 109 111 112 114 112 109 107 105 103 101 98 96 94 92 89 86 85 82 80 74 86 91 88 81 80 81 81 83 85
137 144 142 109 109 109 114 112 117 115 116 119 115 110 108 113 110 112 113 111 109 106 105 105 102 100 97 95 93 90 87 84 82 75 89 84 86 82 78 81 83 84 83
135 139 122 106 110 107 112 113 110 119 124 123 120 115 112 110 114 109 114 116 115 111 108 108 105 103 100 98 96 93 89 87 84 92 84 83 82 80 77 80 80 82 83
130 135 125 113 117 114 111 111 113 115 130 129 123 116 115 109 111 110 110 117 117 116 113 111 108 105 102 100 98 96 93 91 112 91 87 84 82 79 78 80 81 80 80
131 135 133 117 120 115 112 115 115 121 125 133 128 121 117 110 106 112 110 112 116 117 116 115 112 109 107 103 98 95 90 78 92 90 87 83 77 76 79 78 80 79 78
129 140 140 122 113 115 112 109 110 116 121 133 136 127 121 114 107 117 116 118 117 120 120 119 116 114 111 107 103 97 86 72 103 93 91 86 79 79 78 77 78 77 76
122 133 140 156 146 123 106 99 98 101 113 130 135 123 114 111 107 117 122 124 122 121 123 123 120 116 112 110 105 98 85 37 101 91 90 86 82 83 81 77 76 78 75
111 117 119 152 164 167 154 114 104 97 109 131 124 118 114 121 116 118 129 125 125 122 124 125 122 118 115 111 106 98 96 186 109 100 91 82 82 85 84 82 77 75 73
94 94 105 123 170 178 172 154 152 133 125 146 138 127 137 152 147 140 124 119 124 124 123 125 121 116 118 117 108 104 169 145 108 92 86 70 79 86 83 82 78 75 71
200 266 110 178 166 172 176 174 186 181 168 174 165 163 165 154 145 134 121 120 123 124 126 122 120 127 139 137 129 165 161 139 118 105 83 65 76 86 81 77 75 72 74
225 261 277 251 203 167 175 184 191 185 179 177 174 173 161 147 146 145 145 144 145 145 142 134 144 142 142 138 158 163 145 137 126 113 91 67 58 62 71 70 67 50 45
266 277 295 284 242 201 191 188 194 179 179 172 176 174 165 154 158 159 155 152 153 150 146 153 153 144 148 152 160 160 159 159 145 119 87 62 44 44 52 51 47 34 21
317 309 307 309 284 245 217 202 199 182 178 175 171 184 174 168 164 158 154 155 150 148 160 162 156 158 158 155 159 167 168 162 147 129 101 67 42 38 35 31 12 5 14
302 316 320 313 305 272 220 210 200 192 175 178 167 167 174 175 165 161 156 154 158 162 170 176 171 176 171 167 169 172 164 163 161 150 116 94 56 27 6 0 357 344 337
291 310 328 323 301 248 219 218 209 193 183 176 164 159 164 175 170 162 164 159 164 171 171 176 173 179 174 175 178 175 169 175 173 165 161 187 132 49 6 348 333 323 319
291 323 345 355 2 249 209 195 193 185 182 182 162 153 164 172 171 166 165 161 159 173 174 169 173 177 180 189 183 177 177 171 194 198 191 201 266 272 354 357 337 325 315
286 335 28 35 44 54 123 157 175 166 168 178 158 147 159 170 169 165 167 159 162 166 177 171 175 181 185 190 192 191 198 197 208 216 218 212 251 279 280 343 329 323 321
266 53 98 89 70 97 128 128 143 130 133 133 134 136 142 161 165 163 155 155 162 164 170 179 174 171 185 194 197 202 212 215 217 223 237 237 246 266 279 286 270 274 305
147 110 98 113 102 110 124 149 169 153 149 122 114 130 132 144 157 158 161 156 165 167 174 178 170 170 164 172 197 206 206 213 222 223 239 246 244 258 266 275 285 292 282
190 156 159 151 115 108 105 159 216 171 164 133 112 97 112 149 139 146 170 157 169 169 171 171 160 169 156 183 206 213 227 211 207 229 243 251 257 258 266 275 282 289 292
212 232 213 176 137 117 115 131 119 124 129 143 134 126 100 159 162 141 148 164 166 163 182 185 184 185 181 186 208 224 233 242 227 213 230 244 258 260 263 267 270 278 284
234 233 217 172 132 138 143 131 141 152 149 210 320 74 120 140 142 158 152 183 174 174 180 197 199 202 198 197 204 238 274 295 254 247 223 235 250 257 267 270 270 272 276
243 227 215 172 145 143 145 142 153 145 119 105 104 61 43 138 118 126 150 190 178 183 182 197 205 211 212 213 207 210 232 247 253 254 259 252 247 246 259 263 260 264 268
295 213 211 171 150 154 157 156 153 145 138 115 91 86 239 193 144 111 189 225 202 194 191 202 208 219 225 225 219 211 219 229 240 249 260 268 266 262 262 259 255 254 256